sat.trackr.live / text

‹ back to catalog

TYVAK-0173

NORAD 48892 · 2021-059P

PAYLOAD ACTIVE UNKNOWN

§ Identity

Operator
Country
AUS
Launch date
2021-06-30
Launch site
AFETR
Launch vehicle
Mass (kg)
RCS (m²)

External: N2YO · Heavens-Above · Gunter

§ Orbital elements

Epoch: 2026-09-20T14:26:08.075040Z

Period
97.16 min
Inclination
95.9985°
Eccentricity
0.0010795
Mean motion
14.82126935 rev/d
Perigee alt
615.1 km
Apogee alt
630.2 km
Semi-major
7,000.8 km
B*
1.1327e-4
RAAN
316.2073°
Arg perigee
70.3717°
Mean anomaly
289.8665°
Rev number
28,237

§ Raw data

TYVAK-01731 48892U 21059P   26263.60148235  .00000870  00000+0  11327-3 0  99972 48892  95.9985 316.2073 0010795  70.3717 289.8665 14.82126935282374

JSON: /api/v1/satellites/48892 · /tle

For live sub-satellite position, see the globe view (requires WebGL).

§ Visibility from observer

Set your observer location to see the next 7 days of passes ≥ 10°. The values pass through the URL so the page stays shareable.

No JS? Fill the form by hand. The geolocation button needs JavaScript.

§ Radio — SatNOGS DB

ModeDescriptionDownlinkUplink
FSK Downlink 401.200 MHz

1 transmitter · refreshed weekly from db.satnogs.org